This demonstration page uses our WeatherBlox Daily Observations layout. Learn more.

Left ArrowRight Arrow

39.51506, -84.39828

Hourly Observations for March 7, 2021

Temp ( °F °C ) Dew Point ( °F °C ) Humidity (%) Winds ( mph kmh ) Pressure ( in mb ) Visibility ( mi km ) Precip ( " mm )
12:15 am 00:15 Clear 25 -3.9 20 -6.4 83 83 N N/A 30.34 1027 10 16 N/A
12:35 am 00:35 Partly Cloudy 25 -4.1 20 -6.4 84 84 NNE 6 9 30.35 1028 10 16 N/A
12:55 am 00:55 Cloudy 25 -3.7 23 -5.2 89 89 N N/A 30.35 1028 10 16 N/A
1:15 am 01:15 Mostly Cloudy 26 -3.3 23 -4.9 89 89 ENE 5 7 30.34 1028 10 16 N/A
1:35 am 01:35 Mostly Cloudy 29 -1.5 23 -5.2 76 76 N 8 13 30.35 1028 10 16 N/A
1:55 am 01:55 Cloudy 33 0.3 21 -6.1 63 63 N 9 15 30.35 1028 10 16 N/A
2:15 am 02:15 Cloudy 32 0.2 21 -6.1 63 63 N 9 15 30.35 1028 10 16 N/A
2:35 am 02:35 Cloudy 33 0.3 20 -6.5 61 61 N 9 15 30.35 1028 10 16 N/A
2:55 am 02:55 Cloudy 32 0.1 20 -6.7 61 61 N 9 15 30.37 1028 10 16 N/A
3:15 am 03:15 Cloudy 32 -0.1 20 -6.7 61 61 NNW 10 17 30.37 1028 10 16 N/A
3:35 am 03:35 Cloudy 31 -0.3 19 -7.1 61 61 N 9 15 30.37 1028 10 16 N/A
3:55 am 03:55 Cloudy 31 -0.5 19 -7.3 60 60 N 8 13 30.38 1029 10 16 N/A
4:15 am 04:15 Partly Cloudy 30 -1.2 18 -7.6 62 62 N 7 11 30.39 1029 10 16 N/A
4:35 am 04:35 Clear 29 -1.7 18 -7.8 63 63 N 9 15 30.40 1029 10 16 N/A
4:55 am 04:55 Clear 28 -2 17 -8.1 63 63 N 9 15 30.41 1030 10 16 N/A
5:15 am 05:15 Clear 28 -2.3 17 -8.4 63 63 N 6 9 30.42 1030 10 16 N/A
5:35 am 05:35 Clear 27 -2.9 17 -8.5 66 66 N 5 7 30.42 1030 10 16 N/A
5:55 am 05:55 Clear 26 -3.3 17 -8.6 67 67 N 6 9 30.43 1031 10 16 N/A
6:15 am 06:15 Clear 26 -3.2 17 -8.6 67 67 N 3 6 30.44 1031 10 16 N/A
6:35 am 06:35 Clear 26 -3.6 16 -8.7 68 68 NNE 5 7 30.46 1031 10 16 N/A
6:55 am 06:55 Clear 26 -3.5 17 -8.6 68 68 N 3 6 30.46 1031 10 16 N/A
7:15 am 07:15 Sunny 25 -3.9 16 -8.8 69 69 N N/A 30.47 1032 10 16 N/A
7:35 am 07:35 Sunny 25 -3.8 17 -8.6 70 70 NNE 5 7 30.48 1032 10 16 N/A
7:55 am 07:55 Sunny 26 -3.2 19 -7.3 74 74 ENE 3 6 30.47 1032 10 16 N/A
8:15 am 08:15 Sunny 27 -2.6 18 -7.9 67 67 NNE 6 9 30.47 1032 10 16 N/A
8:35 am 08:35 Sunny 29 -1.7 18 -7.8 63 63 NNE 8 13 30.48 1032 10 16 N/A
8:55 am 08:55 Sunny 30 -1.1 18 -7.9 60 60 NNE 9 15 30.49 1032 10 16 N/A
9:15 am 09:15 Sunny 31 -0.5 19 -7.5 60 60 NNE 7 11 30.50 1033 10 16 N/A
9:35 am 09:35 Sunny 32 0.1 17 -8.1 54 54 N 6 9 30.50 1033 10 16 N/A
9:55 am 09:55 Sunny 33 0.8 18 -8 52 52 NE 7 11 30.49 1033 10 16 N/A
10:15 am 10:15 Sunny 35 1.5 15 -9.3 45 45 NE 7 11 30.49 1033 10 16 N/A
10:35 am 10:35 Sunny 36 2.1 14 -10.2 40 40 NE 6 9 30.50 1033 10 16 N/A
10:55 am 10:55 Sunny 37 2.8 13 -10.7 37 37 NE 8 13 30.50 1033 10 16 N/A
11:15 am 11:15 Sunny 38 3.1 12 -11 35 35 N 3 6 30.50 1033 10 16 N/A
11:35 am 11:35 Sunny 39 4 11 -11.7 31 31 NW 7 11 30.49 1033 10 16 N/A
11:55 am 11:55 Sunny 40 4.5 11 -11.8 30 30 NW 7 11 30.50 1033 10 16 N/A
12:15 pm 12:15 Sunny 41 4.9 10 -12 29 29 NNW 9 15 30.49 1033 10 16 N/A
12:35 pm 12:35 Sunny 42 5.3 11 -11.7 28 28 N 8 13 30.49 1033 10 16 N/A
12:55 pm 12:55 Sunny 43 6.1 11 -11.4 28 28 N 8 13 30.48 1032 10 16 N/A
1:15 pm 13:15 Sunny 44 6.6 9 -12.7 24 24 N 9 15 30.47 1032 10 16 N/A
1:35 pm 13:35 Sunny 44 6.5 9 -12.6 24 24 NW 10 17 30.47 1032 10 16 N/A
1:55 pm 13:55 Sunny 45 7.1 7 -13.7 21 21 N 7 11 30.46 1031 10 16 N/A
2:15 pm 14:15 Sunny 45 7.4 10 -12.4 23 23 WNW 6 9 30.46 1031 10 16 N/A
2:35 pm 14:35 Sunny 46 7.7 10 -12.4 23 23 WNW 7 11 30.45 1031 10 16 N/A
2:55 pm 14:55 Sunny 46 7.8 9 -12.6 22 22 N 5 7 30.44 1031 10 16 N/A
3:15 pm 15:15 Sunny 47 8.1 10 -12.4 22 22 WNW 7 11 30.44 1031 10 16 N/A
3:35 pm 15:35 Sunny 47 8.2 11 -11.8 23 23 N 6 9 30.45 1031 10 16 N/A
3:55 pm 15:55 Sunny 47 8.4 11 -11.8 23 23 N 10 17 30.45 1031 10 16 N/A
4:15 pm 16:15 Sunny 47 8.6 11 -11.4 23 23 WNW 8 13 30.44 1031 10 16 N/A
4:35 pm 16:35 Sunny 48 9 13 -10.7 24 24 W 7 11 30.44 1031 10 16 N/A
4:55 pm 16:55 Sunny 48 8.7 12 -11 24 24 WNW 7 11 30.44 1031 10 16 N/A
5:15 pm 17:15 Sunny 47 8.5 10 -12.1 22 22 NW 3 6 30.44 1031 10 16 N/A
5:35 pm 17:35 Sunny 47 8.3 11 -11.7 23 23 NW 7 11 30.45 1031 10 16 N/A
5:55 pm 17:55 Sunny 45 7.4 12 -11.2 26 26 N 5 7 30.45 1031 10 16 N/A
6:15 pm 18:15 Sunny 45 7.3 11 -11.5 25 25 N N/A 30.45 1031 10 16 N/A
6:35 pm 18:35 Sunny 44 6.7 14 -10.2 29 29 N N/A 30.46 1031 10 16 N/A
6:55 pm 18:55 Clear 39 3.8 20 -6.5 47 47 N N/A 30.47 1032 10 16 N/A
7:15 pm 19:15 Clear 37 2.7 22 -5.6 55 55 N 3 6 30.48 1032 10 16 N/A
7:35 pm 19:35 Clear 35 1.6 20 -6.4 56 56 N 3 6 30.48 1032 10 16 N/A
7:55 pm 19:55 Clear 33 0.6 20 -6.7 58 58 N 3 6 30.48 1032 10 16 N/A
8:15 pm 20:15 Clear 31 -0.6 20 -6.5 65 65 N N/A 30.49 1032 10 16 N/A
8:35 pm 20:35 Clear 31 -0.8 21 -6.3 67 67 N N/A 30.49 1032 10 16 N/A
8:55 pm 20:55 Clear 29 -1.7 18 -8 63 63 N N/A 30.49 1033 10 16 N/A
9:15 pm 21:15 Clear 28 -2.1 19 -7.3 68 68 N 3 6 30.49 1033 10 16 N/A
9:35 pm 21:35 Clear 29 -1.7 18 -7.8 63 63 N N/A 30.50 1033 10 16 N/A
9:55 pm 21:55 Clear 28 -2.5 18 -7.7 68 68 NNE 3 6 30.50 1033 10 16 N/A
10:15 pm 22:15 Clear 28 -2.1 19 -7.2 68 68 NNE 5 7 30.51 1033 10 16 N/A
10:35 pm 22:35 Clear 28 -2.4 19 -7.1 70 70 N 3 6 30.50 1033 10 16 N/A
10:55 pm 22:55 Clear 27 -3 19 -7.3 73 73 NNW 3 6 30.51 1033 10 16 N/A
11:15 pm 23:15 Clear 27 -2.9 19 -7.4 71 71 NNE 3 6 30.52 1034 10 16 N/A
11:35 pm 23:35 Clear 27 -2.7 20 -6.4 76 76 N 3 6 30.51 1033 10 16 N/A
11:55 pm 23:55 Clear 26 -3.2 19 -7.1 75 75 NNW 3 6 30.51 1033 10 16 N/A

Powered by AerisWeather